�N����,����,�~����,�C��,���x,�C��,����,���ϕ���,�ő�u�ԕ���,�ő厞����,���˗�,�I�_���x,�n�����x,�ő啗���N��,DTYPE
"23/03/27","00:10",0.0,9.3,96.5,1010.4,329.9,3.6,4.2,324.3,0.00,8.8,12.4,"00:06:54",1
"23/03/27","00:20",0.0,9.2,96.3,1010.4,318.1,3.6,5.4,306.6,0.00,8.7,12.3,"00:19:16",1
"23/03/27","00:30",0.0,9.2,96.0,1010.9,322.7,3.5,5.1,328.2,0.00,8.6,12.4,"00:20:08",1
"23/03/27","00:40",0.0,9.3,95.7,1010.7,321.4,3.9,5.4,322.6,0.00,8.7,12.3,"00:37:14",1
"23/03/27","00:50",0.0,9.4,95.2,1010.4,319.3,3.4,4.8,317.6,0.00,8.7,12.3,"00:40:56",1
"23/03/27","01:00",0.0,9.3,94.7,1010.4,322.6,3.7,5.7,330.8,0.00,8.5,12.5,"00:51:52",1
"23/03/27","01:10",0.0,9.4,94.3,1010.9,323.5,3.5,5.2,315.6,0.00,8.6,12.2,"01:05:04",1
"23/03/27","01:20",0.0,9.3,93.9,1010.7,323.4,3.5,4.8,321.1,0.00,8.4,12.3,"01:11:12",1
"23/03/27","01:30",0.0,9.2,93.6,1011.2,321.7,3.0,4.0,319.2,0.00,8.3,12.4,"01:25:20",1
"23/03/27","01:40",0.0,9.1,93.4,1011.4,331.8,2.2,3.3,335.1,0.00,8.1,12.3,"01:38:32",1
"23/03/27","01:50",0.0,8.8,93.5,1010.9,320.9,2.5,3.2,298.3,0.00,7.9,12.2,"01:45:20",1
"23/03/27","02:00",0.0,8.5,93.6,1010.9,317.7,2.2,3.3,336.2,0.00,7.6,12.2,"01:51:36",1
"23/03/27","02:10",0.0,8.3,93.9,1010.9,301.3,2.3,3.6,313.1,0.00,7.4,12.2,"02:09:04",1
"23/03/27","02:20",0.0,8.2,94.0,1010.9,307.4,2.6,3.5,328.1,0.00,7.3,12.1,"02:10:40",1
"23/03/27","02:30",0.0,8.0,94.2,1010.9,305.7,2.1,2.9,332.6,0.00,7.2,12.1,"02:20:48",1
"23/03/27","02:40",0.0,7.9,94.5,1010.7,294.1,2.0,2.9,323.8,0.00,7.1,12.0,"02:38:08",1
"23/03/27","02:50",0.0,7.9,94.5,1011.2,283.3,1.0,1.9,309.3,0.00,7.1,11.9,"02:45:04",1
"23/03/27","03:00",0.0,8.0,94.8,1011.2,324.3,2.2,3.6,338.3,0.00,7.3,12.2,"02:59:28",1
"23/03/27","03:10",0.0,7.8,94.9,1010.4,302.5,2.0,2.9,331.0,0.00,7.1,12.1,"03:01:20",1
"23/03/27","03:20",0.0,7.9,95.0,1010.4,299.3,2.3,3.2,314.1,0.00,7.2,12.2,"03:15:28",1
"23/03/27","03:30",0.0,7.8,95.1,1010.2,321.7,2.0,3.5,325.4,0.00,7.1,12.1,"03:23:44",1
"23/03/27","03:40",0.0,7.7,95.3,1010.4,299.7,2.0,2.8,322.6,0.00,7.0,12.0,"03:38:32",1
"23/03/27","03:50",0.0,7.7,95.4,1010.7,324.6,1.6,2.5,316.9,0.00,7.1,12.0,"03:46:32",1
"23/03/27","04:00",0.0,7.7,95.5,1010.4,313.3,1.6,2.2,343.9,0.00,7.1,12.0,"03:58:00",1
"23/03/27","04:10",0.0,7.8,95.7,1010.7,307.6,2.6,4.0,321.4,0.00,7.2,11.9,"04:06:00",1
"23/03/27","04:20",0.0,8.0,95.7,1010.7,313.4,1.1,2.1,314.4,0.00,7.4,11.8,"04:18:16",1
"23/03/27","04:30",0.0,8.0,95.7,1010.9,326.4,2.2,2.8,327.7,0.00,7.4,12.1,"04:24:56",1
"23/03/27","04:40",0.0,8.1,95.6,1011.6,319.8,3.4,4.5,317.8,0.00,7.5,11.9,"04:35:52",1
"23/03/27","04:50",0.0,8.0,95.4,1011.9,312.7,2.3,3.3,308.9,0.00,7.4,11.7,"04:44:48",1
"23/03/27","05:00",0.0,8.0,95.4,1012.1,306.2,2.3,3.5,335.5,0.00,7.4,11.9,"04:51:12",1
"23/03/27","05:10",0.0,8.1,95.2,1012.3,289.2,2.3,4.3,315.9,0.00,7.4,11.7,"05:02:00",1
"23/03/27","05:20",0.0,8.1,95.1,1012.6,296.5,1.8,2.8,260.0,0.00,7.4,11.8,"05:10:08",1
"23/03/27","05:30",0.0,8.0,94.9,1012.3,328.2,1.3,3.6,326.8,0.00,7.3,11.8,"05:23:52",1
"23/03/27","05:40",0.0,7.7,94.9,1012.1,302.1,2.5,3.4,316.4,0.00,7.0,11.7,"05:38:40",1
"23/03/27","05:50",0.0,7.5,94.8,1012.6,320.6,2.6,3.5,311.8,0.00,6.8,11.7,"05:42:08",1
"23/03/27","06:00",0.0,7.4,94.9,1012.1,320.8,2.6,4.3,320.7,0.00,6.7,11.8,"05:56:16",1
"23/03/27","06:10",0.0,7.2,94.9,1012.6,332.0,1.3,2.9,313.2,0.00,6.5,11.7,"06:00:56",1
"23/03/27","06:20",0.0,7.1,95.0,1012.1,326.7,1.8,2.8,322.7,0.00,6.4,11.7,"06:11:04",1
"23/03/27","06:30",0.0,7.1,95.2,1012.3,324.1,2.3,3.6,320.2,0.00,6.4,11.7,"06:23:20",1
"23/03/27","06:40",0.0,7.0,95.4,1012.3,329.1,3.2,4.4,336.5,0.00,6.4,11.7,"06:37:52",1
"23/03/27","06:50",0.0,6.9,95.6,1012.3,321.5,3.6,5.5,321.2,0.00,6.3,11.7,"06:48:40",1
"23/03/27","07:00",0.0,7.0,95.7,1012.3,305.2,3.2,4.2,315.6,0.00,6.4,11.6,"06:51:28",1
"23/03/27","07:10",0.0,7.1,95.9,1012.1,302.6,3.2,5.4,315.2,0.02,6.5,11.7,"07:07:04",1
"23/03/27","07:20",0.0,7.0,96.0,1012.3,304.7,3.4,4.2,321.3,0.03,6.4,11.6,"07:14:00",1
"23/03/27","07:30",0.0,7.3,96.1,1012.6,314.4,2.8,3.7,311.9,0.04,6.8,11.6,"07:20:08",1
"23/03/27","07:40",0.0,7.5,96.2,1012.6,306.3,2.7,3.6,322.3,0.06,7.0,11.4,"07:35:52",1
"23/03/27","07:50",0.0,7.8,96.0,1013.0,313.7,3.5,8.3,324.1,0.08,7.2,11.7,"07:46:48",1
"23/03/27","08:00",0.0,8.3,95.8,1013.5,331.3,2.7,5.6,325.1,0.11,7.7,11.3,"07:51:44",1
"23/03/27","08:10",0.0,8.7,95.4,1013.8,321.9,1.7,2.9,336.0,0.14,8.0,11.5,"08:02:48",1
"23/03/27","08:20",0.0,9.6,94.8,1013.8,320.6,0.8,2.0,353.7,0.18,8.8,11.4,"08:18:24",1
"23/03/27","08:30",0.0,10.4,93.2,1014.0,288.7,0.8,1.7,308.1,0.20,9.4,11.4,"08:22:56",1
"23/03/27","08:40",0.0,10.7,92.1,1014.0,207.5,0.3,1.1,182.5,0.25,9.5,11.6,"08:30:48",1
"23/03/27","08:50",0.0,10.8,89.8,1013.8,69.2,0.7,1.8,328.4,0.29,9.2,11.6,"08:49:24",1
"23/03/27","09:00",0.0,11.2,85.5,1014.2,333.3,1.6,5.0,316.2,0.32,8.9,11.5,"08:57:26",1
"23/03/27","09:10",0.0,11.1,81.3,1014.5,322.7,2.5,5.9,316.8,0.28,8.1,11.7,"09:04:34",1
"23/03/27","09:20",0.0,11.3,78.8,1014.9,328.0,2.5,4.9,335.6,0.33,7.8,11.4,"09:19:00",1
"23/03/27","09:30",0.0,11.6,77.2,1014.5,333.3,2.3,5.4,357.0,0.37,7.8,11.6,"09:26:34",1
"23/03/27","09:40",0.0,11.9,75.3,1014.7,328.6,2.5,4.7,347.8,0.42,7.7,11.6,"09:37:20",1
"23/03/27","09:50",0.0,12.5,72.3,1014.5,353.9,1.8,4.1,18.4,0.37,7.7,11.6,"09:45:28",1
"23/03/27","10:00",0.0,12.4,70.7,1014.7,356.6,2.6,5.2,346.8,0.32,7.3,11.5,"09:57:30",1
"23/03/27","10:10",0.0,12.9,70.4,1014.7,345.3,2.0,6.0,349.5,0.32,7.7,11.4,"10:03:56",1
"23/03/27","10:20",0.0,12.8,68.6,1014.9,329.5,2.0,5.4,332.3,0.32,7.2,11.7,"10:16:56",1
"23/03/27","10:30",0.0,13.0,68.2,1014.9,316.4,2.5,5.2,331.0,0.34,7.3,11.9,"10:28:56",1
"23/03/27","10:40",0.0,13.4,67.8,1014.7,335.8,2.5,6.2,344.8,0.36,7.6,11.7,"10:30:16",1
"23/03/27","10:50",0.0,13.3,66.8,1014.7,340.9,3.5,6.6,344.9,0.35,7.3,11.8,"10:43:44",1
"23/03/27","11:00",0.0,13.7,64.7,1014.2,349.7,2.3,4.4,336.4,0.37,7.2,11.8,"10:58:48",1
"23/03/27","11:10",0.0,13.4,64.1,1014.2,330.4,3.5,6.8,343.7,0.38,6.8,11.9,"11:06:32",1
"23/03/27","11:20",0.0,13.8,64.4,1014.2,335.0,3.7,8.0,347.4,0.46,7.2,12.0,"11:11:36",1
"23/03/27","11:30",0.0,14.1,61.8,1014.5,338.0,4.0,9.8,345.8,0.51,6.9,12.1,"11:27:28",1
"23/03/27","11:40",0.0,14.3,59.7,1014.2,343.1,3.0,5.7,4.0,0.47,6.6,12.0,"11:35:36",1
"23/03/27","11:50",0.0,14.3,59.4,1014.0,351.2,2.8,5.9,343.7,0.46,6.5,12.2,"11:46:48",1
"23/03/27","12:00",0.0,15.0,55.8,1013.8,354.9,2.0,4.0,249.5,0.48,6.3,12.1,"11:59:44",1
"23/03/27","12:10",0.0,14.6,56.4,1014.0,330.6,3.2,7.2,324.4,0.47,6.1,12.2,"12:07:28",1
"23/03/27","12:20",0.2,14.8,55.0,1013.5,335.3,3.6,10.5,321.5,0.51,5.9,12.2,"12:11:12",1
"23/03/27","12:30",0.0,15.2,55.5,1013.3,349.8,2.7,6.2,332.4,0.49,6.4,12.3,"12:28:16",1
"23/03/27","12:40",0.0,15.1,54.9,1013.3,325.8,3.6,7.4,318.7,0.50,6.1,12.4,"12:33:36",1
"23/03/27","12:50",0.0,15.1,54.1,1013.3,331.0,2.7,6.6,311.1,0.40,5.9,12.5,"12:49:36",1
"23/03/27","13:00",0.0,15.4,54.6,1013.0,344.4,3.2,7.7,343.6,0.59,6.3,12.5,"12:57:20",1
"23/03/27","13:10",0.0,15.4,52.0,1013.3,344.0,3.4,7.1,345.4,0.52,5.6,12.7,"13:03:12",1
"23/03/27","13:20",0.0,15.8,48.5,1013.5,353.3,2.3,6.6,338.4,0.60,5.0,12.7,"13:15:04",1
"23/03/27","13:30",0.0,15.9,49.1,1013.3,4.3,2.0,4.8,348.2,0.51,5.3,12.8,"13:22:32",1
"23/03/27","13:40",0.0,15.5,52.9,1013.0,345.4,2.6,5.9,327.3,0.40,6.0,12.7,"13:35:36",1
"23/03/27","13:50",0.0,15.2,53.5,1013.3,344.0,4.2,7.3,341.7,0.48,5.9,12.5,"13:45:36",1
"23/03/27","14:00",0.0,15.1,51.1,1013.0,339.2,4.5,7.5,349.9,0.56,5.1,13.0,"13:52:48",1
"23/03/27","14:10",0.0,15.4,50.4,1013.0,339.4,4.2,6.5,346.9,0.55,5.2,13.0,"14:04:48",1
"23/03/27","14:20",0.0,15.2,46.7,1012.6,327.0,5.7,8.7,307.1,0.54,3.9,13.0,"14:19:54",1
"23/03/27","14:30",0.0,15.7,48.8,1012.6,328.5,5.0,9.5,314.5,0.52,5.0,12.9,"14:20:24",1
"23/03/27","14:40",0.0,15.6,48.3,1012.6,320.8,3.9,7.9,344.7,0.50,4.8,13.2,"14:34:08",1
"23/03/27","14:50",0.0,15.7,49.9,1012.6,319.5,4.1,6.4,334.7,0.51,5.3,13.2,"14:43:44",1
"23/03/27","15:00",0.0,15.7,50.5,1012.6,335.2,4.2,8.9,334.5,0.47,5.5,13.2,"14:50:48",1
"23/03/27","15:10",0.0,15.9,50.8,1012.8,337.4,4.2,6.6,327.3,0.45,5.8,13.0,"15:03:28",1
"23/03/27","15:20",0.0,16.1,48.9,1012.8,349.3,2.7,7.7,348.7,0.39,5.4,13.4,"15:10:56",1
"23/03/27","15:30",0.0,15.9,46.9,1012.6,344.0,3.0,5.4,351.9,0.37,4.6,13.5,"15:26:40",1
"23/03/27","15:40",0.0,16.1,45.8,1012.8,354.0,1.8,4.3,345.9,0.30,4.5,13.3,"15:30:24",1
"23/03/27","15:50",0.0,15.9,47.9,1012.3,357.0,2.7,5.5,337.4,0.28,4.9,13.6,"15:49:52",1
"23/03/27","16:00",0.0,15.7,47.0,1012.8,339.2,3.2,5.7,338.2,0.32,4.5,13.4,"15:50:24",1
"23/03/27","16:10",0.0,15.5,47.9,1012.8,355.2,3.1,7.1,345.2,0.26,4.6,13.5,"16:08:32",1
"23/03/27","16:20",0.0,15.3,46.8,1012.6,340.5,3.6,6.8,340.8,0.26,4.0,13.5,"16:17:44",1
"23/03/27","16:30",0.0,14.7,47.1,1012.3,344.7,3.4,6.8,356.9,0.17,3.6,13.6,"16:24:40",1
"23/03/27","16:40",0.0,14.7,46.3,1012.6,341.4,3.0,5.6,344.7,0.16,3.3,13.4,"16:33:52",1
"23/03/27","16:50",0.0,14.6,49.0,1012.8,347.8,1.8,3.2,337.7,0.08,4.1,13.7,"16:41:04",1
"23/03/27","17:00",0.0,14.1,50.9,1013.5,340.2,2.6,4.8,336.9,0.06,4.1,13.4,"16:59:32",1
"23/03/27","17:10",0.0,13.8,48.3,1013.5,349.5,2.2,4.3,351.7,0.04,3.1,13.7,"17:01:04",1
"23/03/27","17:20",0.0,13.5,50.8,1013.3,342.8,2.7,5.8,324.6,0.05,3.6,13.6,"17:15:04",1
"23/03/27","17:30",0.0,13.2,51.5,1013.5,342.8,3.2,6.0,347.4,0.03,3.5,13.6,"17:26:44",1
"23/03/27","17:40",0.0,12.8,51.4,1013.5,339.1,3.5,5.0,334.2,0.02,3.1,13.5,"17:32:06",1
"23/03/27","17:50",0.0,12.6,50.8,1013.3,347.4,2.3,4.2,345.6,0.02,2.7,13.5,"17:47:50",1
"23/03/27","18:00",0.0,12.5,52.9,1013.8,337.5,2.0,3.2,349.5,0.01,3.2,13.4,"17:56:00",1
"23/03/27","18:10",0.0,12.1,52.0,1013.3,346.1,2.3,4.5,333.5,0.01,2.6,13.6,"18:08:52",1
"23/03/27","18:20",0.0,12.1,52.6,1013.5,349.3,2.3,4.5,339.5,0.01,2.8,13.6,"18:14:00",1
"23/03/27","18:30",0.0,12.0,53.4,1013.8,347.3,2.2,3.7,333.7,0.01,2.9,13.5,"18:28:10",1
"23/03/27","18:40",0.0,11.8,51.9,1013.8,355.2,2.2,3.7,13.6,0.01,2.3,13.4,"18:33:30",1
"23/03/27","18:50",0.0,11.6,53.0,1013.8,343.6,2.2,3.4,349.6,0.00,2.4,13.3,"18:43:44",1
"23/03/27","19:00",0.0,11.5,54.8,1014.0,339.0,2.0,2.0,339.0,0.00,2.8,13.4,"18:52:32",1
"23/03/27","19:10",0.0,11.2,56.8,1014.0,337.1,1.7,2.1,341.4,0.00,3.0,13.5,"19:01:10",1
"23/03/27","19:20",0.0,10.8,60.9,1014.2,331.0,2.0,2.5,337.7,0.00,3.6,13.4,"19:15:56",1
"23/03/27","19:30",0.0,10.0,63.8,1014.5,344.9,1.8,2.6,339.9,0.00,3.5,13.2,"19:20:24",1
"23/03/27","19:40",0.0,9.7,65.1,1014.0,343.4,1.8,2.6,349.7,0.00,3.5,13.2,"19:34:46",1
"23/03/27","19:50",0.0,9.6,64.5,1014.5,345.0,2.2,4.1,346.1,0.00,3.3,13.2,"19:43:12",1
"23/03/27","20:00",0.0,9.6,63.2,1014.7,347.3,2.2,4.1,337.3,0.00,3.0,13.2,"19:52:04",1
"23/03/27","20:10",0.0,9.2,65.1,1014.7,335.6,2.5,4.1,339.4,0.00,3.0,13.2,"20:08:10",1
"23/03/27","20:20",0.0,8.8,67.2,1014.9,331.3,2.2,3.5,342.1,0.00,3.1,13.2,"20:17:44",1
"23/03/27","20:30",0.0,8.7,68.5,1014.9,338.7,2.0,3.4,332.7,0.00,3.3,13.1,"20:20:48",1
"23/03/27","20:40",0.0,8.2,70.0,1015.2,333.5,1.3,2.2,334.8,0.00,3.1,13.2,"20:37:28",1
"23/03/27","20:50",0.0,7.7,72.0,1015.2,322.5,2.0,3.1,327.8,0.00,3.0,13.1,"20:47:04",1
"23/03/27","21:00",0.0,7.2,74.0,1014.7,328.6,2.2,3.4,326.2,0.00,2.9,12.8,"20:59:04",1
"23/03/27","21:10",0.0,7.6,74.9,1015.2,333.9,2.5,6.2,335.9,0.00,3.5,12.9,"21:06:08",1
"23/03/27","21:20",0.0,7.1,75.6,1015.4,312.1,1.7,3.1,293.9,0.00,3.1,13.0,"21:14:48",1
"23/03/27","21:30",0.0,7.0,77.2,1015.6,298.1,2.6,3.9,304.7,0.00,3.3,12.9,"21:29:52",1
"23/03/27","21:40",0.0,6.9,78.6,1015.2,294.9,3.1,4.2,318.2,0.00,3.5,13.0,"21:36:48",1
"23/03/27","21:50",0.0,7.2,79.2,1015.2,304.5,3.6,5.0,320.7,0.00,3.9,12.9,"21:44:40",1
"23/03/27","22:00",0.0,7.1,79.9,1015.6,311.1,4.0,5.0,310.8,0.00,3.9,12.7,"21:55:20",1
"23/03/27","22:10",0.0,7.1,80.1,1015.6,303.9,3.1,4.1,315.4,0.00,3.9,12.8,"22:02:00",1
"23/03/27","22:20",0.0,6.8,80.5,1015.6,318.8,2.5,4.0,318.2,0.00,3.7,12.6,"22:10:32",1
"23/03/27","22:30",0.0,6.5,81.1,1015.4,274.1,1.5,2.5,259.3,0.00,3.5,12.7,"22:26:52",1
"23/03/27","22:40",0.0,6.2,82.1,1015.4,294.3,1.5,2.2,281.6,0.00,3.4,12.4,"22:35:12",1
"23/03/27","22:50",0.0,6.0,83.4,1015.9,333.4,3.0,4.1,337.3,0.00,3.4,12.4,"22:48:42",1
"23/03/27","23:00",0.0,6.3,84.7,1015.6,325.4,4.2,6.0,338.5,0.00,4.0,12.4,"22:57:48",1
"23/03/27","23:10",0.0,6.8,84.6,1015.6,313.1,5.1,6.6,318.4,0.00,4.4,12.4,"23:05:28",1
"23/03/27","23:20",0.0,6.8,84.0,1015.9,317.2,3.5,5.9,311.2,0.00,4.3,12.2,"23:14:08",1
"23/03/27","23:30",0.0,6.5,83.7,1016.1,317.5,2.1,3.4,335.7,0.00,4.0,12.3,"23:20:56",1
"23/03/27","23:40",0.0,6.2,84.0,1016.4,327.0,2.3,3.4,334.9,0.00,3.7,12.2,"23:38:30",1
"23/03/27","23:50",0.0,6.1,84.7,1015.9,339.9,2.3,3.9,337.0,0.00,3.8,12.2,"23:43:04",1
"23/03/27","24:00",0.0,6.1,85.1,1016.1,327.0,2.7,5.4,332.8,0.00,3.8,12.2,"23:52:02",1
